Weather History for Mosby, MO

Change the Weather History Date:

Monday, November 19, 2012

  Actual Average (KMKC) Record (KMKC)
Temperature  
Mean Temperature 52 °F -  
Max Temperature 64 °F 51 °F 77 °F (2007)
Min Temperature 39 °F 34 °F 27 °F (2006)
Degree Days  
Heating Degree Days 12    
Growing Degree Days 2 (Base 50)    
Moisture  
Dew Point 42 °F    
Average Humidity 69    
Maximum Humidity 100    
Minimum Humidity 47    
Precipitation  
Precipitation 0.00 in - - ()
Sea Level Pressure  
Sea Level Pressure 30.11 in    
Wind  
Wind Speed 6 mph ()    
Max Wind Speed 16 mph    
Max Gust Speed 23 mph    
Visibility 9.9 miles    
Events      
Averages and records for this station are not official NWS values.
T = Trace of Precipitation, MM = Missing Value Source: Averaged Metar Reports

Daily Weather History Graph

Daily Weather History Graph

Search for Another Location

Airport:

Trip Planner

Search our weather history database for the weather conditions in past years. The results will help you decide how hot, cold, wet, or windy it might be!

Date:

Astronomy

Nov. 19, 2012 Rise Set
Actual Time 7:05 AM CST 4:59 PM CST
Civil Twilight 6:36 AM CST 5:28 PM CST
Nautical Twilight 6:04 AM CST 6:00 PM CST
Astronomical Twilight 5:32 AM CST 6:32 PM CST
Moon 12:09 PM CST (11/19) 11:26 PM CST (11/19)
Length of Visible Light 10h 51m
Length of Day
9h 53m
Waxing Crescent, 41% of the Moon is Illuminated
Nov 19
Waxing Crescent
Nov 20
First Quarter
Nov 28
Full
Dec 6
Last Quarter
Dec 13
New

Hourly Weather History & Observations

Time (CST) Temp. Dew Point Humidity Pressure Visibility Wind Dir Wind Speed Gust Speed Precip Events Conditions
12:15 AM 53.6 °F 35.6 °F 51% 30.17 in 10.0 mi SE 4.6 mph - N/A   Overcast
12:35 AM 53.6 °F 35.6 °F 51% 30.17 in 10.0 mi SE 4.6 mph - N/A   Overcast
12:55 AM 53.6 °F 35.6 °F 51% 30.15 in 10.0 mi SE 4.6 mph - N/A   Overcast
1:15 AM 53.6 °F 35.6 °F 51% 30.15 in 10.0 mi SE 4.6 mph - N/A   Overcast
1:35 AM 53.6 °F 35.6 °F 51% 30.15 in 10.0 mi SE 4.6 mph - N/A   Scattered Clouds
1:55 AM 53.6 °F 35.6 °F 51% 30.14 in 10.0 mi SE 3.5 mph - N/A   Clear
2:15 AM 53.6 °F 35.6 °F 51% 30.15 in 10.0 mi SE 4.6 mph - N/A   Scattered Clouds
2:35 AM 53.6 °F 33.8 °F 47% 30.15 in 10.0 mi South 6.9 mph - N/A   Scattered Clouds
2:55 AM 53.6 °F 33.8 °F 47% 30.15 in 10.0 mi South 6.9 mph - N/A   Mostly Cloudy
3:15 AM 55.4 °F 35.6 °F 47% 30.15 in 10.0 mi South 12.7 mph 17.3 mph N/A   Scattered Clouds
3:35 AM 53.6 °F 35.6 °F 51% 30.15 in 10.0 mi South 11.5 mph 17.3 mph N/A   Scattered Clouds
3:55 AM 53.6 °F 37.4 °F 54% 30.14 in 10.0 mi South 8.1 mph 16.1 mph N/A   Overcast
4:15 AM 53.6 °F 39.2 °F 58% 30.14 in 10.0 mi South 8.1 mph - N/A   Overcast
4:35 AM 51.8 °F 41.0 °F 67% 30.13 in 10.0 mi South 9.2 mph - N/A   Overcast
5:15 AM 51.8 °F 42.8 °F 71% 30.13 in 10.0 mi South 11.5 mph 16.1 mph N/A   Mostly Cloudy
5:35 AM 50.0 °F 44.6 °F 82% 30.14 in 10.0 mi SSE 6.9 mph - N/A   Overcast
5:55 AM 50.0 °F 44.6 °F 82% 30.14 in 10.0 mi SSE 8.1 mph - N/A   Scattered Clouds
6:15 AM 50.0 °F 42.8 °F 76% 30.13 in 10.0 mi SSE 6.9 mph - N/A   Clear
6:35 AM 48.2 °F 42.8 °F 82% 30.14 in 10.0 mi SE 3.5 mph - N/A   Clear
6:55 AM 48.2 °F 42.8 °F 82% 30.13 in 10.0 mi SSE 5.8 mph - N/A   Clear
7:15 AM 48.2 °F 42.8 °F 82% 30.14 in 10.0 mi SSE 4.6 mph - N/A   Scattered Clouds
7:35 AM 48.2 °F 42.8 °F 82% 30.14 in 10.0 mi SSE 6.9 mph - N/A   Overcast
7:55 AM 50.0 °F 44.6 °F 82% 30.14 in 10.0 mi SSE 5.8 mph - N/A   Overcast
8:15 AM 50.0 °F 44.6 °F 82% 30.14 in 10.0 mi SSE 6.9 mph - N/A   Mostly Cloudy
8:35 AM 50.0 °F 44.6 °F 82% 30.14 in 10.0 mi South 5.8 mph - N/A   Mostly Cloudy
8:55 AM 50.0 °F 44.6 °F 82% 30.15 in 10.0 mi South 5.8 mph - N/A   Scattered Clouds
9:15 AM 51.8 °F 44.6 °F 76% 30.15 in 10.0 mi South 8.1 mph - N/A   Mostly Cloudy
9:35 AM 53.6 °F 44.6 °F 72% 30.14 in 10.0 mi South 10.4 mph - N/A   Scattered Clouds
10:15 AM 55.4 °F 44.6 °F 67% 30.14 in 10.0 mi South 16.1 mph 23.0 mph N/A   Clear
10:35 AM 55.4 °F 44.6 °F 67% 30.14 in 10.0 mi South 15.0 mph 20.7 mph N/A   Clear
10:55 AM 55.4 °F 44.6 °F 67% 30.14 in 10.0 mi SSW 11.5 mph - N/A   Clear
11:15 AM 57.2 °F 44.6 °F 63% 30.13 in 10.0 mi SSW 13.8 mph 18.4 mph N/A   Clear
11:35 AM 59.0 °F 44.6 °F 59% 30.12 in 10.0 mi SSW 11.5 mph 17.3 mph N/A   Clear
11:55 AM 59.0 °F 44.6 °F 59% 30.11 in 10.0 mi SSW 10.4 mph - N/A   Clear
12:15 PM 59.0 °F 44.6 °F 59% 30.10 in 10.0 mi SSW 11.5 mph - N/A   Clear
12:35 PM 59.0 °F 44.6 °F 59% 30.08 in 10.0 mi SSW 9.2 mph - N/A   Clear
12:55 PM 60.8 °F 44.6 °F 55% 30.08 in 10.0 mi SSW 10.4 mph - N/A   Clear
1:15 PM 60.8 °F 46.4 °F 59% 30.07 in 10.0 mi SSW 6.9 mph - N/A   Clear
1:35 PM 62.6 °F 46.4 °F 55% 30.07 in 10.0 mi South 11.5 mph 17.3 mph N/A   Clear
1:55 PM 62.6 °F 46.4 °F 55% 30.06 in 10.0 mi South 10.4 mph - N/A   Clear
2:15 PM 62.6 °F 46.4 °F 55% 30.05 in 10.0 mi SSW 8.1 mph - N/A   Clear
2:55 PM 62.6 °F 46.4 °F 55% 30.05 in 10.0 mi SSW 11.5 mph - N/A   Clear
3:15 PM 64.4 °F 46.4 °F 52% 30.05 in 10.0 mi SW 10.4 mph - N/A   Clear
3:35 PM 64.4 °F 46.4 °F 52% 30.06 in 10.0 mi SW 9.2 mph - N/A   Clear
3:55 PM 62.6 °F 46.4 °F 55% 30.06 in 10.0 mi SSW 6.9 mph - N/A   Clear
4:15 PM 62.6 °F 46.4 °F 55% 30.06 in 10.0 mi South 5.8 mph - N/A   Clear
4:35 PM 62.6 °F 46.4 °F 55% 30.06 in 10.0 mi SSW 3.5 mph - N/A   Clear
4:55 PM 62.6 °F 46.4 °F 55% 30.06 in 10.0 mi South 4.6 mph - N/A   Clear
5:15 PM 60.8 °F 46.4 °F 59% 30.06 in 10.0 mi South 3.5 mph - N/A   Clear
5:35 PM 60.8 °F 46.4 °F 59% 30.07 in 10.0 mi Calm Calm - N/A   Clear
5:55 PM 59.0 °F 46.4 °F 63% 30.07 in 10.0 mi Calm Calm - N/A   Clear
6:15 PM 55.4 °F 46.4 °F 72% 30.08 in 10.0 mi Calm Calm - N/A   Clear
6:35 PM 53.6 °F 46.4 °F 77% 30.08 in 10.0 mi Calm Calm - N/A   Clear
7:15 PM 50.0 °F 44.6 °F 82% 30.09 in 10.0 mi Calm Calm - N/A   Clear
7:35 PM 48.2 °F 44.6 °F 87% 30.08 in 10.0 mi Calm Calm - N/A   Clear
7:55 PM 46.4 °F 42.8 °F 87% 30.08 in 10.0 mi Calm Calm - N/A   Clear
8:15 PM 48.2 °F 44.6 °F 87% 30.08 in 10.0 mi Calm Calm - N/A   Clear
8:35 PM 46.4 °F 44.6 °F 93% 30.08 in 10.0 mi Calm Calm - N/A   Clear
8:55 PM 46.4 °F 42.8 °F 87% 30.08 in 10.0 mi Calm Calm - N/A   Clear
9:15 PM 44.6 °F 42.8 °F 93% 30.08 in 10.0 mi Calm Calm - N/A   Clear
9:35 PM 42.8 °F 41.0 °F 93% 30.09 in 10.0 mi Calm Calm - N/A   Clear
9:55 PM 42.8 °F 41.0 °F 93% 30.09 in 10.0 mi Calm Calm - N/A   Clear
10:15 PM 41.0 °F 39.2 °F 93% 30.09 in 10.0 mi Calm Calm - N/A   Clear
10:35 PM 41.0 °F 41.0 °F 100% 30.09 in 10.0 mi Calm Calm - N/A   Clear
10:55 PM 41.0 °F 37.4 °F 87% 30.09 in 7.0 mi Calm Calm - N/A   Clear
11:15 PM 41.0 °F 37.4 °F 87% 30.09 in 10.0 mi Calm Calm - N/A   Clear
11:35 PM 39.2 °F 37.4 °F 93% 30.10 in 7.0 mi Calm Calm - N/A   Clear